Back to catalog

FENGYUN 1C DEB

LostPO
NORAD 31960·DEBRIS·🇨🇳 China

Launched May 10, 1999 from Taiyuan Satellite Launch Center

Loading…

Next Passes (next 24 hours)

TLE

StaleSource: Space-Track

Epoch: Oct 18, 2021, 15:27 UTC

1 31960U 99025CNM 21291.64411027  .00000474  00000-0  34527-3 0  9993
2 31960  99.6903 232.9756 0148334 260.2517  98.1864 13.96575990726282

Track FENGYUN 1C DEB in real time with AllMySat

Download on the App Store